Regional Weather Roundup
Issued by NWS Albany, NY

Home | Current Version | Previous Version | Graphics & Text | Print | Product List | Glossary Off
Versions: 1 2 3 4 5 6 7 8 9 10 11 12 13 14 15 16 17 18 19 20 21 22 23 24 25 26 27 28 29

000
ASUS41 KALY 280910
RWRALY

NEW YORK STATE HOURLY WEATHER ROUNDUP
NATIONAL WEATHER SERVICE ALBANY NY
500 AM EDT THU APR 28 2016

NOTE: "FAIR" INDICATES FEW OR NO CLOUDS BELOW 12,000 FEET WITH NO
SIGNIFICANT WEATHER AND/OR NO OBSTRUCTIONS TO VISIBILITY.

NYZ032-033-038>043-046>054-057>066-NYZ062>081-082-084-281000-
EAST


CITY           SKY/WX    TMP DP  RH WIND       PRES   REMARKS
ALBANY         CLOUDY    37  19  48 N7        30.01R WCI  32
GLENS FALLS    CLEAR     32  20  61 NW6       30.01R WCI  26
POUGHKEEPSIE   CLEAR     36  29  75 SW3       29.99R
NEWBURGH       CLEAR     39  30  70 CALM      29.99R
MONTGOMERY     CLOUDY    36  29  75 CALM      29.98R
WHITE PLAINS   CLEAR     44  18  35 N7        29.97R
ISLIP          CLEAR     46  27  47 N7        29.97R
NEW YORK CITY  MOCLDY    49  33  54 NE7       29.97R
CENTRAL PARK   MOCLDY    49  26  41 NE7       29.99R
$$

NYZ005>009-017-018-044>046-055-056-281000-
CENTRAL


CITY           SKY/WX    TMP DP  RH WIND       PRES   REMARKS
FULTON         PTCLDY    35  23  61 NE7       30.03S WCI  29
SYRACUSE       CLOUDY    31  25  78 CALM      30.03R
ROME           CLOUDY    26  24  92 CALM      30.05R
ELMIRA         MOCLDY    32  23  69 CALM      30.01R
BINGHAMTON     PTCLDY    35  18  49 N9        29.97R WCI  28
MONTICELLO     CLOUDY    36  18  48 SW6       30.00R WCI  31
$$

NYZ026>034-041>043-087-281000-
NORTH


CITY           SKY/WX    TMP DP  RH WIND       PRES   REMARKS
WATERTOWN      CLOUDY    25  22  88 E6        30.04S WCI  18
FORT DRUM      NOT AVBL
MASSENA        CLEAR     31  17  56 N3        30.07R
SARANAC LAKE   CLEAR     17  12  80 CALM      29.96R
PLATTSBURGH    CLEAR     29  15  56 NW8       30.02  WCI  21
$$

NYZ001>004-010>016-019>021-085-281000-
WEST


CITY           SKY/WX    TMP DP  RH WIND       PRES   REMARKS
NIAGARA FALLS  CLOUDY    36  24  62 NE3       30.02R
BUFFALO        CLOUDY    37  20  50 NE7       30.02R WCI  32
DUNKIRK        CLOUDY    38  22  52 NE6       29.99R WCI  33
JAMESTOWN      CLOUDY    37  19  48 NE6       29.94R WCI  33
WELLSVILLE     PTCLDY    36  17  46 E5        29.98R WCI  32
ROCHESTER      PTCLDY    33  24  69 CALM      30.04R
PENN YAN       CLOUDY    36  19  50 CALM      30.01S
$$

             KEY
       WCI = WIND CHILL INDEX
       VSB = VISIBILITY
       HX  = HEAT INDEX
$$




USA.gov is the U.S. government's official web portal to all federal, state and local government web resources and services.